Year,Month,Day,Hour,Minute,Value (Times are PST for insolation in W/m^2)
2020,06,07,00,00,0.00
2020,06,07,00,01,0.00
2020,06,07,00,02,0.00
2020,06,07,00,03,0.00
2020,06,07,00,04,0.00
2020,06,07,00,05,0.00
2020,06,07,00,06,0.00
2020,06,07,00,07,0.00
2020,06,07,00,08,0.00
2020,06,07,00,09,0.00
2020,06,07,00,10,0.00
2020,06,07,00,11,0.00
2020,06,07,00,12,0.00
2020,06,07,00,13,0.00
2020,06,07,00,14,0.00
2020,06,07,00,15,0.00
2020,06,07,00,16,0.00
2020,06,07,00,17,0.00
2020,06,07,00,18,0.00
2020,06,07,00,19,0.00
2020,06,07,00,20,0.00
2020,06,07,00,21,0.00
2020,06,07,00,22,0.00
2020,06,07,00,23,0.00
2020,06,07,00,24,0.00
2020,06,07,00,25,0.00
2020,06,07,00,26,0.00
2020,06,07,00,27,0.00
2020,06,07,00,28,0.00
2020,06,07,00,29,0.00
2020,06,07,00,30,0.00
2020,06,07,00,31,0.00
2020,06,07,00,32,0.00
2020,06,07,00,33,0.00
2020,06,07,00,34,0.00
2020,06,07,00,35,0.00
2020,06,07,00,36,0.00
2020,06,07,00,37,0.00
2020,06,07,00,38,0.00
2020,06,07,00,39,0.00
2020,06,07,00,40,0.00
2020,06,07,00,41,0.00
2020,06,07,00,42,0.00
2020,06,07,00,43,0.00
2020,06,07,00,44,0.00
2020,06,07,00,45,0.00
2020,06,07,00,46,0.00
2020,06,07,00,47,0.00
2020,06,07,00,48,0.00
2020,06,07,00,49,0.00
2020,06,07,00,50,0.00
2020,06,07,00,51,0.00
2020,06,07,00,52,0.00
2020,06,07,00,53,0.00
2020,06,07,00,54,0.00
2020,06,07,00,55,0.00
2020,06,07,00,56,0.00
2020,06,07,00,57,0.00
2020,06,07,00,58,0.00
2020,06,07,00,59,0.00
2020,06,07,01,00,0.00
2020,06,07,01,01,0.00
2020,06,07,01,02,0.00
2020,06,07,01,03,0.00
2020,06,07,01,04,0.00
2020,06,07,01,05,0.00
2020,06,07,01,06,0.00
2020,06,07,01,07,0.00
2020,06,07,01,08,0.00
2020,06,07,01,09,0.00
2020,06,07,01,10,0.00
2020,06,07,01,11,0.00
2020,06,07,01,12,0.00
2020,06,07,01,13,0.00
2020,06,07,01,14,0.00
2020,06,07,01,15,0.00
2020,06,07,01,16,0.00
2020,06,07,01,17,0.00
2020,06,07,01,18,0.00
2020,06,07,01,19,0.00
2020,06,07,01,20,0.00
2020,06,07,01,21,0.00
2020,06,07,01,22,0.00
2020,06,07,01,23,0.00
2020,06,07,01,24,0.00
2020,06,07,01,25,0.00
2020,06,07,01,26,0.00
2020,06,07,01,27,0.00
2020,06,07,01,28,0.00
2020,06,07,01,29,0.00
2020,06,07,01,30,0.00
2020,06,07,01,31,0.00
2020,06,07,01,32,0.00
2020,06,07,01,33,0.00
2020,06,07,01,34,0.00
2020,06,07,01,35,0.00
2020,06,07,01,36,0.00
2020,06,07,01,37,0.00
2020,06,07,01,38,0.00
2020,06,07,01,39,0.00
2020,06,07,01,40,0.00
2020,06,07,01,41,0.00
2020,06,07,01,42,0.00
2020,06,07,01,43,0.00
2020,06,07,01,44,0.00
2020,06,07,01,45,0.00
2020,06,07,01,46,0.00
2020,06,07,01,47,0.00
2020,06,07,01,48,0.00
2020,06,07,01,49,0.00
2020,06,07,01,50,0.00
2020,06,07,01,51,0.00
2020,06,07,01,52,0.00
2020,06,07,01,53,0.00
2020,06,07,01,54,0.00
2020,06,07,01,55,0.00
2020,06,07,01,56,0.00
2020,06,07,01,57,0.00
2020,06,07,01,58,0.00
2020,06,07,01,59,0.00
2020,06,07,02,00,0.00
2020,06,07,02,01,0.00
2020,06,07,02,02,0.00
2020,06,07,02,03,0.00
2020,06,07,02,04,0.00
2020,06,07,02,05,0.00
2020,06,07,02,06,0.00
2020,06,07,02,07,0.00
2020,06,07,02,08,0.00
2020,06,07,02,09,0.00
2020,06,07,02,10,0.00
2020,06,07,02,11,0.00
2020,06,07,02,12,0.00
2020,06,07,02,13,0.00
2020,06,07,02,14,0.00
2020,06,07,02,15,0.00
2020,06,07,02,16,0.00
2020,06,07,02,17,0.00
2020,06,07,02,18,0.00
2020,06,07,02,19,0.00
2020,06,07,02,20,0.00
2020,06,07,02,21,0.00
2020,06,07,02,22,0.00
2020,06,07,02,23,0.00
2020,06,07,02,24,0.00
2020,06,07,02,25,0.00
2020,06,07,02,26,0.00
2020,06,07,02,27,0.00
2020,06,07,02,28,0.00
2020,06,07,02,29,0.00
2020,06,07,02,30,0.00
2020,06,07,02,31,0.00
2020,06,07,02,32,0.00
2020,06,07,02,33,0.00
2020,06,07,02,34,0.00
2020,06,07,02,35,0.00
2020,06,07,02,36,0.00
2020,06,07,02,37,0.00
2020,06,07,02,38,0.00
2020,06,07,02,39,0.00
2020,06,07,02,40,0.00
2020,06,07,02,41,0.00
2020,06,07,02,42,0.00
2020,06,07,02,43,0.00
2020,06,07,02,44,0.00
2020,06,07,02,45,0.00
2020,06,07,02,46,0.00
2020,06,07,02,47,0.00
2020,06,07,02,48,0.00
2020,06,07,02,49,0.00
2020,06,07,02,50,0.00
2020,06,07,02,51,0.00
2020,06,07,02,52,0.00
2020,06,07,02,53,0.00
2020,06,07,02,54,0.00
2020,06,07,02,55,0.00
2020,06,07,02,56,0.00
2020,06,07,02,57,0.00
2020,06,07,02,58,0.00
2020,06,07,02,59,0.00
2020,06,07,03,00,0.00
2020,06,07,03,01,0.00
2020,06,07,03,02,0.00
2020,06,07,03,03,0.00
2020,06,07,03,04,0.00
2020,06,07,03,05,0.00
2020,06,07,03,06,0.00
2020,06,07,03,07,0.00
2020,06,07,03,08,0.00
2020,06,07,03,09,0.00
2020,06,07,03,10,0.00
2020,06,07,03,11,0.00
2020,06,07,03,12,0.00
2020,06,07,03,13,0.00
2020,06,07,03,14,0.00
2020,06,07,03,15,0.00
2020,06,07,03,16,0.00
2020,06,07,03,17,0.00
2020,06,07,03,18,0.00
2020,06,07,03,19,0.00
2020,06,07,03,20,0.00
2020,06,07,03,21,0.00
2020,06,07,03,22,0.00
2020,06,07,03,23,0.00
2020,06,07,03,24,0.00
2020,06,07,03,25,0.00
2020,06,07,03,26,0.00
2020,06,07,03,27,0.00
2020,06,07,03,28,0.00
2020,06,07,03,29,0.00
2020,06,07,03,30,0.00
2020,06,07,03,31,0.00
2020,06,07,03,32,0.00
2020,06,07,03,33,0.00
2020,06,07,03,34,0.00
2020,06,07,03,35,0.00
2020,06,07,03,36,0.00
2020,06,07,03,37,0.00
2020,06,07,03,38,0.00
2020,06,07,03,39,0.00
2020,06,07,03,40,0.00
2020,06,07,03,41,0.00
2020,06,07,03,42,0.00
2020,06,07,03,43,0.00
2020,06,07,03,44,0.00
2020,06,07,03,45,0.00
2020,06,07,03,46,0.00
2020,06,07,03,47,0.00
2020,06,07,03,48,0.00
2020,06,07,03,49,0.00
2020,06,07,03,50,0.00
2020,06,07,03,51,0.00
2020,06,07,03,52,0.00
2020,06,07,03,53,0.00
2020,06,07,03,54,0.00
2020,06,07,03,55,0.00
2020,06,07,03,56,0.00
2020,06,07,03,57,0.00
2020,06,07,03,58,0.00
2020,06,07,03,59,0.00
2020,06,07,04,00,0.00
2020,06,07,04,01,0.00
2020,06,07,04,02,0.00
2020,06,07,04,03,0.00
2020,06,07,04,04,0.00
2020,06,07,04,05,0.00
2020,06,07,04,06,0.00
2020,06,07,04,07,0.00
2020,06,07,04,08,0.00
2020,06,07,04,09,0.00
2020,06,07,04,10,0.00
2020,06,07,04,11,0.00
2020,06,07,04,12,0.00
2020,06,07,04,13,0.00
2020,06,07,04,14,0.00
2020,06,07,04,15,0.00
2020,06,07,04,16,0.00
2020,06,07,04,17,0.00
2020,06,07,04,18,0.00
2020,06,07,04,19,0.00
2020,06,07,04,20,0.00
2020,06,07,04,21,0.00
2020,06,07,04,22,0.00
2020,06,07,04,23,0.00
2020,06,07,04,24,0.00
2020,06,07,04,25,0.00
2020,06,07,04,26,0.00
2020,06,07,04,27,0.00
2020,06,07,04,28,0.00
2020,06,07,04,29,0.00
2020,06,07,04,30,0.00
2020,06,07,04,31,0.00
2020,06,07,04,32,0.00
2020,06,07,04,33,0.00
2020,06,07,04,34,0.00
2020,06,07,04,35,0.00
2020,06,07,04,36,0.00
2020,06,07,04,37,0.00
2020,06,07,04,38,0.00
2020,06,07,04,39,0.00
2020,06,07,04,40,0.00
2020,06,07,04,41,0.00
2020,06,07,04,42,0.00
2020,06,07,04,43,0.00
2020,06,07,04,44,0.00
2020,06,07,04,45,0.00
2020,06,07,04,46,0.00
2020,06,07,04,47,0.00
2020,06,07,04,48,0.00
2020,06,07,04,49,0.00
2020,06,07,04,50,0.00
2020,06,07,04,51,0.00
2020,06,07,04,52,0.00
2020,06,07,04,53,0.00
2020,06,07,04,54,0.00
2020,06,07,04,55,0.00
2020,06,07,04,56,0.00
2020,06,07,04,57,0.00
2020,06,07,04,58,0.00
2020,06,07,04,59,0.00
2020,06,07,05,00,0.00
2020,06,07,05,01,0.00
2020,06,07,05,02,0.00
2020,06,07,05,03,0.00
2020,06,07,05,04,0.00
2020,06,07,05,05,0.00
2020,06,07,05,06,0.00
2020,06,07,05,07,0.00
2020,06,07,05,08,0.00
2020,06,07,05,09,0.00
2020,06,07,05,10,0.00
2020,06,07,05,11,0.00
2020,06,07,05,12,0.00
2020,06,07,05,13,0.00
2020,06,07,05,14,0.00
2020,06,07,05,15,0.00
2020,06,07,05,16,0.00
2020,06,07,05,17,0.00
2020,06,07,05,18,0.00
2020,06,07,05,19,0.00
2020,06,07,05,20,3.20
2020,06,07,05,21,5.00
2020,06,07,05,22,5.00
2020,06,07,05,23,5.40
2020,06,07,05,24,7.00
2020,06,07,05,25,7.00
2020,06,07,05,26,7.00
2020,06,07,05,27,8.60
2020,06,07,05,28,9.00
2020,06,07,05,29,9.50
2020,06,07,05,30,11.00
2020,06,07,05,31,11.50
2020,06,07,05,32,12.00
2020,06,07,05,33,12.00
2020,06,07,05,34,13.90
2020,06,07,05,35,14.00
2020,06,07,05,36,14.90
2020,06,07,05,37,17.10
2020,06,07,05,38,18.00
2020,06,07,05,39,18.00
2020,06,07,05,40,19.30
2020,06,07,05,41,21.00
2020,06,07,05,42,21.00
2020,06,07,05,43,22.10
2020,06,07,05,44,23.00
2020,06,07,05,45,24.70
2020,06,07,05,46,26.30
2020,06,07,05,47,28.60
2020,06,07,05,48,30.00
2020,06,07,05,49,30.00
2020,06,07,05,50,30.00
2020,06,07,05,51,30.00
2020,06,07,05,52,30.00
2020,06,07,05,53,30.00
2020,06,07,05,54,30.00
2020,06,07,05,55,30.00
2020,06,07,05,56,30.00
2020,06,07,05,57,31.80
2020,06,07,05,58,32.20
2020,06,07,05,59,33.00
2020,06,07,06,00,34.00
2020,06,07,06,01,36.30
2020,06,07,06,02,37.00
2020,06,07,06,03,38.90
2020,06,07,06,04,38.60
2020,06,07,06,05,37.00
2020,06,07,06,06,37.00
2020,06,07,06,07,34.50
2020,06,07,06,08,33.00
2020,06,07,06,09,33.00
2020,06,07,06,10,33.00
2020,06,07,06,11,33.00
2020,06,07,06,12,34.10
2020,06,07,06,13,35.00
2020,06,07,06,14,36.70
2020,06,07,06,15,39.00
2020,06,07,06,16,39.30
2020,06,07,06,17,40.00
2020,06,07,06,18,41.00
2020,06,07,06,19,42.00
2020,06,07,06,20,43.70
2020,06,07,06,21,44.30
2020,06,07,06,22,46.00
2020,06,07,06,23,46.00
2020,06,07,06,24,46.00
2020,06,07,06,25,46.00
2020,06,07,06,26,46.90
2020,06,07,06,27,47.00
2020,06,07,06,28,47.00
2020,06,07,06,29,48.00
2020,06,07,06,30,49.00
2020,06,07,06,31,50.50
2020,06,07,06,32,53.80
2020,06,07,06,33,56.60
2020,06,07,06,34,61.10
2020,06,07,06,35,64.00
2020,06,07,06,36,67.40
2020,06,07,06,37,71.20
2020,06,07,06,38,73.90
2020,06,07,06,39,76.20
2020,06,07,06,40,77.00
2020,06,07,06,41,77.00
2020,06,07,06,42,77.00
2020,06,07,06,43,78.60
2020,06,07,06,44,79.20
2020,06,07,06,45,81.00
2020,06,07,06,46,81.70
2020,06,07,06,47,83.00
2020,06,07,06,48,83.00
2020,06,07,06,49,83.80
2020,06,07,06,50,84.00
2020,06,07,06,51,84.50
2020,06,07,06,52,86.80
2020,06,07,06,53,88.00
2020,06,07,06,54,88.00
2020,06,07,06,55,86.30
2020,06,07,06,56,86.00
2020,06,07,06,57,86.00
2020,06,07,06,58,86.80
2020,06,07,06,59,88.00
2020,06,07,07,00,89.40
2020,06,07,07,01,90.90
2020,06,07,07,02,95.20
2020,06,07,07,03,98.40
2020,06,07,07,04,104.10
2020,06,07,07,05,112.10
2020,06,07,07,06,111.20
2020,06,07,07,07,109.00
2020,06,07,07,08,109.30
2020,06,07,07,09,113.10
2020,06,07,07,10,117.10
2020,06,07,07,11,116.00
2020,06,07,07,12,135.80
2020,06,07,07,13,130.00
2020,06,07,07,14,132.80
2020,06,07,07,15,144.30
2020,06,07,07,16,139.10
2020,06,07,07,17,137.00
2020,06,07,07,18,171.40
2020,06,07,07,19,194.90
2020,06,07,07,20,167.10
2020,06,07,07,21,160.00
2020,06,07,07,22,213.40
2020,06,07,07,23,300.40
2020,06,07,07,24,339.40
2020,06,07,07,25,347.90
2020,06,07,07,26,351.10
2020,06,07,07,27,345.60
2020,06,07,07,28,336.10
2020,06,07,07,29,328.60
2020,06,07,07,30,323.70
2020,06,07,07,31,318.00
2020,06,07,07,32,314.50
2020,06,07,07,33,312.20
2020,06,07,07,34,311.00
2020,06,07,07,35,311.00
2020,06,07,07,36,312.70
2020,06,07,07,37,313.00
2020,06,07,07,38,313.80
2020,06,07,07,39,316.80
2020,06,07,07,40,319.10
2020,06,07,07,41,321.40
2020,06,07,07,42,322.80
2020,06,07,07,43,327.30
2020,06,07,07,44,329.30
2020,06,07,07,45,330.90
2020,06,07,07,46,335.30
2020,06,07,07,47,340.30
2020,06,07,07,48,344.50
2020,06,07,07,49,348.70
2020,06,07,07,50,355.00
2020,06,07,07,51,361.70
2020,06,07,07,52,366.90
2020,06,07,07,53,372.00
2020,06,07,07,54,374.00
2020,06,07,07,55,376.00
2020,06,07,07,56,376.60
2020,06,07,07,57,378.00
2020,06,07,07,58,379.20
2020,06,07,07,59,380.00
2020,06,07,08,00,382.60
2020,06,07,08,01,384.70
2020,06,07,08,02,391.40
2020,06,07,08,03,396.40
2020,06,07,08,04,401.40
2020,06,07,08,05,405.50
2020,06,07,08,06,406.70
2020,06,07,08,07,409.30
2020,06,07,08,08,394.30
2020,06,07,08,09,425.50
2020,06,07,08,10,418.90
2020,06,07,08,11,433.10
2020,06,07,08,12,438.30
2020,06,07,08,13,461.80
2020,06,07,08,14,459.40
2020,06,07,08,15,456.00
2020,06,07,08,16,408.40
2020,06,07,08,17,388.00
2020,06,07,08,18,394.40
2020,06,07,08,19,433.00
2020,06,07,08,20,329.00
2020,06,07,08,21,245.20
2020,06,07,08,22,223.00
2020,06,07,08,23,419.70
2020,06,07,08,24,453.20
2020,06,07,08,25,388.00
2020,06,07,08,26,297.60
2020,06,07,08,27,197.00
2020,06,07,08,28,220.00
2020,06,07,08,29,515.90
2020,06,07,08,30,529.40
2020,06,07,08,31,432.50
2020,06,07,08,32,462.90
2020,06,07,08,33,452.00
2020,06,07,08,34,553.20
2020,06,07,08,35,587.00
2020,06,07,08,36,589.10
2020,06,07,08,37,579.20
2020,06,07,08,38,515.70
2020,06,07,08,39,444.40
2020,06,07,08,40,410.00
2020,06,07,08,41,406.90
2020,06,07,08,42,337.00
2020,06,07,08,43,320.00
2020,06,07,08,44,322.40
2020,06,07,08,45,313.40
2020,06,07,08,46,281.00
2020,06,07,08,47,271.10
2020,06,07,08,48,268.10
2020,06,07,08,49,263.30
2020,06,07,08,50,258.50
2020,06,07,08,51,252.90
2020,06,07,08,52,244.80
2020,06,07,08,53,237.20
2020,06,07,08,54,236.20
2020,06,07,08,55,237.00
2020,06,07,08,56,238.00
2020,06,07,08,57,241.70
2020,06,07,08,58,247.10
2020,06,07,08,59,261.60
2020,06,07,09,00,263.80
2020,06,07,09,01,274.50
2020,06,07,09,02,281.80
2020,06,07,09,03,264.10
2020,06,07,09,04,260.30
2020,06,07,09,05,258.00
2020,06,07,09,06,257.00
2020,06,07,09,07,258.30
2020,06,07,09,08,264.00
2020,06,07,09,09,265.60
2020,06,07,09,10,270.20
2020,06,07,09,11,287.70
2020,06,07,09,12,295.50
2020,06,07,09,13,314.00
2020,06,07,09,14,338.10
2020,06,07,09,15,384.50
2020,06,07,09,16,399.00
2020,06,07,09,17,387.60
2020,06,07,09,18,339.60
2020,06,07,09,19,341.90
2020,06,07,09,20,369.00
2020,06,07,09,21,415.50
2020,06,07,09,22,474.80
2020,06,07,09,23,462.50
2020,06,07,09,24,450.00
2020,06,07,09,25,450.00
2020,06,07,09,26,490.40
2020,06,07,09,27,512.00
2020,06,07,09,28,406.30
2020,06,07,09,29,334.00
2020,06,07,09,30,334.00
2020,06,07,09,31,334.00
2020,06,07,09,32,334.00
2020,06,07,09,33,416.60
2020,06,07,09,34,434.00
2020,06,07,09,35,493.50
2020,06,07,09,36,680.50
2020,06,07,09,37,672.30
2020,06,07,09,38,668.70
2020,06,07,09,39,664.70
2020,06,07,09,40,663.10
2020,06,07,09,41,664.00
2020,06,07,09,42,662.00
2020,06,07,09,43,661.70
2020,06,07,09,44,660.60
2020,06,07,09,45,644.30
2020,06,07,09,46,635.10
2020,06,07,09,47,635.30
2020,06,07,09,48,655.80
2020,06,07,09,49,663.80
2020,06,07,09,50,675.90
2020,06,07,09,51,687.80
2020,06,07,09,52,685.60
2020,06,07,09,53,663.30
2020,06,07,09,54,670.80
2020,06,07,09,55,688.60
2020,06,07,09,56,690.70
2020,06,07,09,57,662.80
2020,06,07,09,58,682.80
2020,06,07,09,59,686.00
2020,06,07,10,00,686.00
2020,06,07,10,01,693.60
2020,06,07,10,02,710.80
2020,06,07,10,03,748.70
2020,06,07,10,04,754.30
2020,06,07,10,05,765.80
2020,06,07,10,06,760.10
2020,06,07,10,07,755.50
2020,06,07,10,08,751.00
2020,06,07,10,09,751.00
2020,06,07,10,10,751.00
2020,06,07,10,11,525.20
2020,06,07,10,12,130.00
2020,06,07,10,13,130.00
2020,06,07,10,14,594.70
2020,06,07,10,15,702.10
2020,06,07,10,16,689.30
2020,06,07,10,17,714.60
2020,06,07,10,18,744.90
2020,06,07,10,19,751.00
2020,06,07,10,20,762.70
2020,06,07,10,21,763.00
2020,06,07,10,22,749.00
2020,06,07,10,23,754.30
2020,06,07,10,24,774.40
2020,06,07,10,25,790.30
2020,06,07,10,26,797.10
2020,06,07,10,27,798.00
2020,06,07,10,28,799.40
2020,06,07,10,29,802.60
2020,06,07,10,30,799.90
2020,06,07,10,31,796.50
2020,06,07,10,32,796.00
2020,06,07,10,33,796.30
2020,06,07,10,34,798.60
2020,06,07,10,35,800.00
2020,06,07,10,36,800.00
2020,06,07,10,37,800.00
2020,06,07,10,38,804.30
2020,06,07,10,39,804.70
2020,06,07,10,40,804.20
2020,06,07,10,41,808.40
2020,06,07,10,42,811.20
2020,06,07,10,43,812.00
2020,06,07,10,44,790.20
2020,06,07,10,45,788.00
2020,06,07,10,46,788.00
2020,06,07,10,47,820.50
2020,06,07,10,48,858.50
2020,06,07,10,49,865.40
2020,06,07,10,50,867.10
2020,06,07,10,51,816.30
2020,06,07,10,52,882.00
2020,06,07,10,53,882.00
2020,06,07,10,54,882.00
2020,06,07,10,55,867.00
2020,06,07,10,56,874.60
2020,06,07,10,57,888.90
2020,06,07,10,58,890.80
2020,06,07,10,59,863.30
2020,06,07,11,00,861.00
2020,06,07,11,01,878.50
2020,06,07,11,02,881.00
2020,06,07,11,03,881.00
2020,06,07,11,04,897.80
2020,06,07,11,05,950.70
2020,06,07,11,06,970.00
2020,06,07,11,07,970.00
2020,06,07,11,08,240.30
2020,06,07,11,09,235.40
2020,06,07,11,10,235.30
2020,06,07,11,11,237.00
2020,06,07,11,12,261.80
2020,06,07,11,13,329.40
2020,06,07,11,14,339.00
2020,06,07,11,15,328.90
2020,06,07,11,16,291.60
2020,06,07,11,17,278.00
2020,06,07,11,18,278.00
2020,06,07,11,19,310.60
2020,06,07,11,20,996.20
2020,06,07,11,21,1002.00
2020,06,07,11,22,667.40
2020,06,07,11,23,272.00
2020,06,07,11,24,786.50
2020,06,07,11,25,958.00
2020,06,07,11,26,958.00
2020,06,07,11,27,686.00
2020,06,07,11,28,178.50
2020,06,07,11,29,192.70
2020,06,07,11,30,205.30
2020,06,07,11,31,247.00
2020,06,07,11,32,251.00
2020,06,07,11,33,251.00
2020,06,07,11,34,251.00
2020,06,07,11,35,283.50
2020,06,07,11,36,309.00
2020,06,07,11,37,311.00
2020,06,07,11,38,471.40
2020,06,07,11,39,1052.40
2020,06,07,11,40,1058.00
2020,06,07,11,41,510.50
2020,06,07,11,42,260.40
2020,06,07,11,43,258.00
2020,06,07,11,44,451.00
2020,06,07,11,45,1013.30
2020,06,07,11,46,1041.90
2020,06,07,11,47,1049.50
2020,06,07,11,48,1058.30
2020,06,07,11,49,1099.00
2020,06,07,11,50,909.90
2020,06,07,11,51,374.00
2020,06,07,11,52,374.00
2020,06,07,11,53,374.00
2020,06,07,11,54,374.00
2020,06,07,11,55,499.40
2020,06,07,11,56,1081.00
2020,06,07,11,57,1044.00
2020,06,07,11,58,1035.00
2020,06,07,11,59,988.40
2020,06,07,12,00,970.30
2020,06,07,12,01,932.20
2020,06,07,12,02,933.00
2020,06,07,12,03,937.10
2020,06,07,12,04,943.20
2020,06,07,12,05,947.80
2020,06,07,12,06,955.80
2020,06,07,12,07,966.60
2020,06,07,12,08,977.30
2020,06,07,12,09,989.30
2020,06,07,12,10,995.00
2020,06,07,12,11,974.70
2020,06,07,12,12,1004.80
2020,06,07,12,13,1024.10
2020,06,07,12,14,1056.50
2020,06,07,12,15,1074.00
2020,06,07,12,16,1111.30
2020,06,07,12,17,1151.60
2020,06,07,12,18,1111.10
2020,06,07,12,19,917.00
2020,06,07,12,20,358.80
2020,06,07,12,21,438.50
2020,06,07,12,22,439.70
2020,06,07,12,23,498.10
2020,06,07,12,24,439.60
2020,06,07,12,25,340.40
2020,06,07,12,26,318.00
2020,06,07,12,27,315.00
2020,06,07,12,28,331.00
2020,06,07,12,29,343.80
2020,06,07,12,30,322.00
2020,06,07,12,31,315.00
2020,06,07,12,32,330.20
2020,06,07,12,33,350.00
2020,06,07,12,34,350.00
2020,06,07,12,35,350.00
2020,06,07,12,36,1226.70
2020,06,07,12,37,1248.70
2020,06,07,12,38,1257.00
2020,06,07,12,39,1257.00
2020,06,07,12,40,595.50
2020,06,07,12,41,362.00
2020,06,07,12,42,362.00
2020,06,07,12,43,362.00
2020,06,07,12,44,362.00
2020,06,07,12,45,382.70
2020,06,07,12,46,433.00
2020,06,07,12,47,491.70
2020,06,07,12,48,496.00
2020,06,07,12,49,640.70
2020,06,07,12,50,930.00
2020,06,07,12,51,1057.30
2020,06,07,12,52,1130.00
2020,06,07,12,53,496.80
2020,06,07,12,54,468.00
2020,06,07,12,55,468.00
2020,06,07,12,56,468.00
2020,06,07,12,57,775.40
2020,06,07,12,58,951.00
2020,06,07,12,59,957.40
2020,06,07,13,00,1013.50
2020,06,07,13,01,988.90
2020,06,07,13,02,990.50
2020,06,07,13,03,968.50
2020,06,07,13,04,953.20
2020,06,07,13,05,946.30
2020,06,07,13,06,947.00
2020,06,07,13,07,946.60
2020,06,07,13,08,946.50
2020,06,07,13,09,944.80
2020,06,07,13,10,948.30
2020,06,07,13,11,954.20
2020,06,07,13,12,966.40
2020,06,07,13,13,984.00
2020,06,07,13,14,995.00
2020,06,07,13,15,1000.80
2020,06,07,13,16,1009.80
2020,06,07,13,17,1029.60
2020,06,07,13,18,1053.60
2020,06,07,13,19,1065.90
2020,06,07,13,20,1091.10
2020,06,07,13,21,1116.00
2020,06,07,13,22,425.60
2020,06,07,13,23,322.00
2020,06,07,13,24,322.00
2020,06,07,13,25,322.00
2020,06,07,13,26,779.70
2020,06,07,13,27,1132.80
2020,06,07,13,28,1136.00
2020,06,07,13,29,1118.80
2020,06,07,13,30,1011.30
2020,06,07,13,31,960.00
2020,06,07,13,32,960.00
2020,06,07,13,33,960.00
2020,06,07,13,34,993.50
2020,06,07,13,35,997.00
2020,06,07,13,36,997.00
2020,06,07,13,37,997.00
2020,06,07,13,38,988.50
2020,06,07,13,39,989.30
2020,06,07,13,40,991.00
2020,06,07,13,41,1007.80
2020,06,07,13,42,1067.00
2020,06,07,13,43,1090.90
2020,06,07,13,44,1100.00
2020,06,07,13,45,840.90
2020,06,07,13,46,735.40
2020,06,07,13,47,283.00
2020,06,07,13,48,283.00
2020,06,07,13,49,300.30
2020,06,07,13,50,315.00
2020,06,07,13,51,470.00
2020,06,07,13,52,546.30
2020,06,07,13,53,810.00
2020,06,07,13,54,745.00
2020,06,07,13,55,921.90
2020,06,07,13,56,1048.10
2020,06,07,13,57,1041.40
2020,06,07,13,58,1050.70
2020,06,07,13,59,1082.10
2020,06,07,14,00,1114.00
2020,06,07,14,01,845.60
2020,06,07,14,02,673.00
2020,06,07,14,03,1159.50
2020,06,07,14,04,1100.80
2020,06,07,14,05,462.20
2020,06,07,14,06,425.20
2020,06,07,14,07,439.50
2020,06,07,14,08,369.40
2020,06,07,14,09,348.30
2020,06,07,14,10,348.00
2020,06,07,14,11,348.00
2020,06,07,14,12,348.00
2020,06,07,14,13,356.30
2020,06,07,14,14,378.40
2020,06,07,14,15,385.80
2020,06,07,14,16,376.00
2020,06,07,14,17,376.00
2020,06,07,14,18,376.00
2020,06,07,14,19,414.20
2020,06,07,14,20,432.00
2020,06,07,14,21,432.00
2020,06,07,14,22,414.80
2020,06,07,14,23,353.00
2020,06,07,14,24,425.00
2020,06,07,14,25,477.00
2020,06,07,14,26,473.00
2020,06,07,14,27,837.80
2020,06,07,14,28,887.60
2020,06,07,14,29,977.00
2020,06,07,14,30,976.50
2020,06,07,14,31,973.20
2020,06,07,14,32,969.50
2020,06,07,14,33,930.00
2020,06,07,14,34,848.40
2020,06,07,14,35,796.00
2020,06,07,14,36,796.00
2020,06,07,14,37,796.00
2020,06,07,14,38,796.00
2020,06,07,14,39,192.30
2020,06,07,14,40,176.60
2020,06,07,14,41,172.30
2020,06,07,14,42,182.20
2020,06,07,14,43,225.70
2020,06,07,14,44,239.00
2020,06,07,14,45,287.30
2020,06,07,14,46,517.00
2020,06,07,14,47,618.30
2020,06,07,14,48,693.00
2020,06,07,14,49,664.00
2020,06,07,14,50,585.80
2020,06,07,14,51,615.80
2020,06,07,14,52,546.30
2020,06,07,14,53,483.60
2020,06,07,14,54,548.80
2020,06,07,14,55,612.10
2020,06,07,14,56,697.50
2020,06,07,14,57,725.30
2020,06,07,14,58,766.20
2020,06,07,14,59,835.00
2020,06,07,15,00,827.50
2020,06,07,15,01,755.80
2020,06,07,15,02,729.00
2020,06,07,15,03,612.20
2020,06,07,15,04,610.00
2020,06,07,15,05,600.10
2020,06,07,15,06,569.70
2020,06,07,15,07,478.00
2020,06,07,15,08,501.10
2020,06,07,15,09,441.10
2020,06,07,15,10,262.70
2020,06,07,15,11,241.00
2020,06,07,15,12,321.70
2020,06,07,15,13,353.70
2020,06,07,15,14,320.50
2020,06,07,15,15,305.40
2020,06,07,15,16,305.70
2020,06,07,15,17,301.60
2020,06,07,15,18,299.90
2020,06,07,15,19,300.10
2020,06,07,15,20,285.20
2020,06,07,15,21,251.70
2020,06,07,15,22,203.20
2020,06,07,15,23,194.20
2020,06,07,15,24,193.50
2020,06,07,15,25,193.00
2020,06,07,15,26,193.00
2020,06,07,15,27,203.80
2020,06,07,15,28,219.00
2020,06,07,15,29,227.40
2020,06,07,15,30,227.50
2020,06,07,15,31,221.30
2020,06,07,15,32,215.50
2020,06,07,15,33,211.60
2020,06,07,15,34,208.00
2020,06,07,15,35,206.40
2020,06,07,15,36,206.00
2020,06,07,15,37,203.80
2020,06,07,15,38,197.80
2020,06,07,15,39,186.90
2020,06,07,15,40,176.20
2020,06,07,15,41,163.70
2020,06,07,15,42,154.50
2020,06,07,15,43,148.00
2020,06,07,15,44,146.00
2020,06,07,15,45,146.00
2020,06,07,15,46,147.00
2020,06,07,15,47,150.10
2020,06,07,15,48,152.70
2020,06,07,15,49,153.00
2020,06,07,15,50,152.50
2020,06,07,15,51,150.20
2020,06,07,15,52,148.50
2020,06,07,15,53,146.60
2020,06,07,15,54,144.30
2020,06,07,15,55,146.30
2020,06,07,15,56,148.80
2020,06,07,15,57,153.20
2020,06,07,15,58,158.30
2020,06,07,15,59,163.70
2020,06,07,16,00,170.20
2020,06,07,16,01,176.40
2020,06,07,16,02,180.30
2020,06,07,16,03,183.90
2020,06,07,16,04,185.00
2020,06,07,16,05,185.70
2020,06,07,16,06,186.00
2020,06,07,16,07,186.00
2020,06,07,16,08,186.60
2020,06,07,16,09,188.00
2020,06,07,16,10,188.00
2020,06,07,16,11,188.00
2020,06,07,16,12,189.90
2020,06,07,16,13,192.20
2020,06,07,16,14,193.00
2020,06,07,16,15,194.00
2020,06,07,16,16,196.30
2020,06,07,16,17,198.50
2020,06,07,16,18,200.10
2020,06,07,16,19,202.50
2020,06,07,16,20,204.80
2020,06,07,16,21,207.50
2020,06,07,16,22,210.30
2020,06,07,16,23,213.40
2020,06,07,16,24,216.30
2020,06,07,16,25,222.00
2020,06,07,16,26,227.70
2020,06,07,16,27,235.90
2020,06,07,16,28,243.90
2020,06,07,16,29,251.80
2020,06,07,16,30,263.40
2020,06,07,16,31,276.00
2020,06,07,16,32,289.30
2020,06,07,16,33,315.90
2020,06,07,16,34,335.20
2020,06,07,16,35,350.20
2020,06,07,16,36,357.30
2020,06,07,16,37,360.80
2020,06,07,16,38,371.50
2020,06,07,16,39,389.20
2020,06,07,16,40,416.30
2020,06,07,16,41,446.60
2020,06,07,16,42,467.30
2020,06,07,16,43,461.90
2020,06,07,16,44,464.80
2020,06,07,16,45,479.70
2020,06,07,16,46,482.30
2020,06,07,16,47,470.90
2020,06,07,16,48,481.30
2020,06,07,16,49,516.50
2020,06,07,16,50,553.60
2020,06,07,16,51,564.80
2020,06,07,16,52,557.50
2020,06,07,16,53,563.70
2020,06,07,16,54,479.20
2020,06,07,16,55,393.10
2020,06,07,16,56,378.50
2020,06,07,16,57,399.70
2020,06,07,16,58,420.90
2020,06,07,16,59,489.90
2020,06,07,17,00,579.00
2020,06,07,17,01,642.80
2020,06,07,17,02,675.40
2020,06,07,17,03,702.70
2020,06,07,17,04,633.20
2020,06,07,17,05,598.60